Regional Weather Roundup
Issued by NWS

Home | Current Version | Previous Version | Graphics & Text | Print | Product List | Glossary On
Versions: 1 2 3 4 5 6 7 8 9 10 11 12 13 14 15 16 17 18 19 20 21 22 23 24 25 26 27 28 29 30 31 32 33 34 35 36 37 38 39 40 41 42 43 44 45 46 47 48 49 50
000
ASUS43 KFSD 180102
RWRSD

WEATHER ROUNDUP FOR SOUTH DAKOTA
NATIONAL WEATHER SERVICE SIOUX FALLS SD
700 PM CST WED JAN 17 2018

NOTE: "FAIR" INDICATES FEW OR NO CLOUDS BELOW 12,000 FEET WITH NO
SIGNIFICANT WEATHER AND/OR OBSTRUCTIONS TO VISIBILITY.


SDZ001>005-009-010-012>017-180200-
NORTHWEST AND NORTH CENTRAL SOUTH DAKOTA

CITY           SKY/WX    TMP DP  RH WIND       PRES   REMARKS
BUFFALO          N/A     28  20  71 SW17      30.03F WCI  16
FAITH            N/A     30  23  75 W13       30.12F WCI  20
MOBRIDGE       CLEAR     31  23  72 NW7       30.08F WCI  24
$$

SDZ012>016-024>037-041>051-057-063-072>074-180200-
SOUTHWEST AND SOUTH CENTRAL SOUTH DAKOTA

CITY           SKY/WX    TMP DP  RH WIND       PRES   REMARKS
RAPID CTY ARPT CLEAR     32  18  56 SW6       30.16F WCI  26
PIERRE         CLEAR     32  24  72 W6        30.15F WCI  26
CUSTER         CLEAR     33  19  56 SW9       30.16F WCI  25
ELLSWORTH AFB  CLEAR     33  20  59 S6        30.14F WCI  27
PHILIP         CLEAR     32  26  78 W7        30.17F WCI  26
PINE RIDGE     CLEAR     28  20  71 CALM      30.21F
SPEARFISH        N/A     34  19  55 S9        30.15F WCI  26
WINNER         FAIR      36  26  67 W10       30.19S
$$

SDZ004>011-016>023-039-040-180200-
NORTHEAST SOUTH DAKOTA

CITY           SKY/WX    TMP DP  RH WIND       PRES   REMARKS
ABERDEEN       PTCLDY    22  18  85 SW9       30.10F WCI  12
WATERTOWN      CLOUDY    20  15  81 SW7       30.11S WCI  11
BROOKINGS      CLOUDY    22  16  78 SW6       30.15R WCI  14
SISSETON         N/A     34  23  64 W16       30.05F WCI  24
$$

SDZ017-020-022-023-036>040-048>070-180200-
SOUTHEAST SOUTH DAKOTA

CITY           SKY/WX    TMP DP  RH WIND       PRES   REMARKS
SIOUX FALLS    CLOUDY    26  18  71 SW8       30.16F WCI  18
HURON          PTCLDY    30  21  69 SW7       30.14F WCI  23
CHAMBERLAIN    CLEAR     34  26  72 W5        30.17S WCI  30
MITCHELL       PTCLDY    31  22  69 W5        30.18S WCI  26
YANKTON        CLOUDY    32  19  58 W3        30.21F
$$

ABBREVIATIONS USED IN REMARKS
   TC - TEMPERATURE IN CELSIUS
  WCI - WIND CHILL INDEX
   HX - HEAT INDEX
  VSB - VISIBILITY





USA.gov is the U.S. government's official web portal to all federal, state and local government web resources and services.